Location: Battersea Observatory
(44.4318°N, 76.3841°W)
Time: 21:47:38
(UTC-04:00)

Tiros 1 despin weight - Pass Details

Date: 27 January 2022
Orbit: 592 x 639 km, 48.2° (Epoch: 25 May)

Event Time Altitude Azimuth Distance (km) Brightness Sun altitude
Rises 14:59:15 0° 203° (SSW) 2,840 ? 17.3°
Reaches altitude 10° 15:01:56 10° 188° (S) 1,950 ? 17.0°
Maximum altitude 15:05:22 22° 138° (SE) 1,354 ? 16.6°
Drops below altitude 10° 15:08:51 10° 88° (E) 1,984 ? 16.2°
Sets 15:11:35 0° 73° (ENE) 2,904 ? 15.9°
